FW7458 Weather Reports


Display with metric or nautical units.
time (UTC)temp
F
wind
direction
speed
MPH
gust
MPH
rain 1hr
in
rain 24hr
in
rain mn
in
humidity
%
barometer
mb
20260906174006 98 159 2.0 10.0 0.00 0.00 0.00 38 1014.1
20260906173507 99 98 3.0 4.0 0.00 0.00 0.00 37 1014.2
20260906173016 100 141 0.0 4.0 0.00 0.00 0.00 37 1014.2
20260906172507 99 40 0.0 4.0 0.00 0.00 0.00 38 1014.3
20260906172011 99 124 1.0 8.0 0.00 0.00 0.00 38 1014.3
20260906171517 99 53 3.0 7.0 0.00 0.00 0.00 39 1014.3
20260906171007 98 307 1.0 9.0 0.00 0.00 0.00 39 1014.3
20260906170509 98 118 4.0 9.0 0.00 0.00 0.00 39 1014.3
20260906170018 98 145 3.0 9.0 0.00 0.00 0.00 39 1014.3
20260906165508 98 90 2.0 7.0 0.00 0.00 0.00 41 1014.4
20260906165006 98 21 2.0 6.0 0.00 0.00 0.00 41 1014.4
20260906164505 97 50 0.0 3.0 0.00 0.00 0.00 41 1014.4
20260906164009 97 5 1.0 7.0 0.00 0.00 0.00 43 1014.4
20260906163508 96 82 3.0 7.0 0.00 0.00 0.00 43 1014.5
20260906163012 96 9 2.0 7.0 0.00 0.00 0.00 44 1014.5
20260906162512 96 115 2.0 7.0 0.00 0.00 0.00 45 1014.5
20260906162009 95 345 2.0 4.0 0.00 0.00 0.00 45 1014.4
20260906161519 95 144 2.0 4.0 0.00 0.00 0.00 46 1014.4
20260906161012 95 29 1.0 6.0 0.00 0.00 0.00 46 1014.6
20260906160511 95 84 3.0 7.0 0.00 0.00 0.00 47 1014.5
20260906160024 94 124 1.0 7.0 0.00 0.00 0.00 47 1014.6
20260906155510 94 57 2.0 6.0 0.00 0.00 0.00 47 1014.6
20260906155010 94 59 1.0 4.0 0.00 0.00 0.00 48 1014.6
20260906154530 94 114 2.0 4.0 0.00 0.00 0.00 49 1014.6
20260906154003 93 43 2.0 4.0 0.00 0.00 0.00 50 1014.5
20260906153510 93 34 2.0 6.0 0.00 0.00 0.00 50 1014.5
20260906153034 93 65 0.0 6.0 0.00 0.00 0.00 50 1014.5
20260906152511 92 90 1.0 4.0 0.00 0.00 0.00 50 1014.6
20260906152010 92 92 1.0 4.0 0.00 0.00 0.00 51 1014.6
20260906151531 91 119 0.0 4.0 0.00 0.00 0.00 52 1014.4
20260906151013 91 100 1.0 4.0 0.00 0.00 0.00 52 1014.5
20260906150510 90 126 1.0 3.0 0.00 0.00 0.00 53 1014.5
20260906150026 90 54 2.0 4.0 0.00 0.00 0.00 54 1014.5
20260906145511 89 96 1.0 5.0 0.00 0.00 0.00 55 1014.6
20260906145011 89 169 2.0 5.0 0.00 0.00 0.00 55 1014.5
20260906144530 88 173 2.0 5.0 0.00 0.00 0.00 55 1014.4
20260906144003 88 80 0.0 5.0 0.00 0.00 0.00 56 1014.5
20260906143512 87 109 2.0 6.0 0.00 0.00 0.00 57 1014.4
20260906143007 87 72 2.0 6.0 0.00 0.00 0.00 57 1014.4
20260906142503 86 152 3.0 4.0 0.00 0.00 0.00 58 1014.3
20260906142012 86 157 1.0 6.0 0.00 0.00 0.00 59 1014.2
20260906141528 86 148 1.0 6.0 0.00 0.00 0.00 59 1014.3
20260906141007 85 151 1.0 4.0 0.00 0.00 0.00 60 1014.2
20260906140513 85 131 2.0 3.0 0.00 0.00 0.00 62 1014.1
20260906140024 84 91 1.0 3.0 0.00 0.00 0.00 62 1014.1
20260906135512 84 165 1.0 4.0 0.00 0.00 0.00 62 1014.2
20260906135012 84 114 2.0 5.0 0.00 0.00 0.00 62 1014.3
20260906134528 84 128 2.0 5.0 0.00 0.00 0.00 62 1014.3
20260906134015 83 103 0.0 2.0 0.00 0.00 0.00 64 1014.1
20260906133512 83 93 0.0 4.0 0.00 0.00 0.00 64 1014.2
20260906133030 82 113 1.0 3.0 0.00 0.00 0.00 65 1014.1
20260906132513 82 75 0.0 4.0 0.00 0.00 0.00 65 1014.1
20260906132012 82 57 0.0 4.0 0.00 0.00 0.00 66 1014.0
20260906131517 81 85 1.0 5.0 0.00 0.00 0.00 66 1014.0
20260906131003 81 113 2.0 5.0 0.00 0.00 0.00 66 1014.0
20260906130505 81 82 2.0 4.0 0.00 0.00 0.00 66 1014.0
20260906130032 81 92 1.0 4.0 0.00 0.00 0.00 66 1013.9
20260906125507 81 86 1.0 3.0 0.00 0.00 0.00 67 1013.8
20260906125006 80 54 1.0 2.0 0.00 0.00 0.00 67 1013.7
20260906124531 80 61 0.0 2.0 0.00 0.00 0.00 67 1013.6
20260906124010 80 67 0.0 2.0 0.00 0.00 0.00 68 1013.6
20260906123516 80 60 0.0 2.0 0.00 0.00 0.00 68 1013.5
20260906123049 80 49 1.0 2.0 0.00 0.00 0.00 68 1013.4
20260906122514 80 57 0.0 0.0 0.00 0.00 0.00 67 1013.3
20260906122014 80 57 0.0 2.0 0.00 0.00 0.00 67 1013.3
20260906121532 80 101 0.0 2.0 0.00 0.00 0.00 67 1013.3
20260906121014 80 101 0.0 2.0 0.00 0.00 0.00 66 1013.3
20260906120504 81 150 0.0 1.0 0.00 0.00 0.00 66 1013.3
20260906120032 81 106 0.0 1.0 0.00 0.00 0.00 65 1013.1
20260906115508 81 106 0.0 0.0 0.00 0.00 0.00 65 1013.1
20260906115022 81 106 0.0 2.0 0.00 0.00 0.00 65 1013.0
20260906114523 81 106 0.0 2.0 0.00 0.00 0.00 65 1013.0
20260906114007 81 88 0.0 0.0 0.00 0.00 0.00 65 1013.1
20260906113510 81 88 0.0 1.0 0.00 0.00 0.00 65 1013.1
20260906113029 81 88 0.0 2.0 0.00 0.00 0.00 65 1013.1
20260906112519 81 88 1.0 2.0 0.00 0.00 0.00 65 1013.1
20260906112014 81 100 0.0 3.0 0.00 0.00 0.00 66 1013.0
20260906111532 81 110 1.0 3.0 0.00 0.00 0.00 66 1012.9
20260906111014 81 90 0.0 3.0 0.00 0.00 0.00 66 1012.9
20260906110517 80 85 1.0 3.0 0.00 0.00 0.00 66 1012.9
20260906110032 80 88 0.0 2.0 0.00 0.00 0.00 66 1012.9
20260906105516 81 73 0.0 2.0 0.00 0.00 0.00 66 1013.0
20260906105007 81 73 0.0 2.0 0.00 0.00 0.00 66 1013.0
20260906104519 81 73 0.0 2.0 0.00 0.00 0.00 65 1013.0
20260906104010 81 92 0.0 0.0 0.00 0.00 0.00 65 1012.9
20260906103507 81 92 0.0 0.0 0.00 0.00 0.00 65 1012.9
20260906103026 81 92 0.0 0.0 0.00 0.00 0.00 65 1012.9
20260906102513 81 92 0.0 0.0 0.00 0.00 0.00 65 1012.9
20260906102012 81 82 0.0 0.0 0.00 0.00 0.00 64 1012.9
20260906101532 82 90 0.0 0.0 0.00 0.00 0.00 64 1013.0
20260906101017 82 90 0.0 0.0 0.00 0.00 0.00 64 1013.1
20260906100516 82 90 0.0 2.0 0.00 0.00 0.00 63 1013.1
20260906100033 82 90 0.0 2.0 0.00 0.00 0.00 63 1013.0
20260906095515 82 90 0.0 2.0 0.00 0.00 0.00 62 1013.0
20260906095016 82 70 0.0 2.0 0.00 0.00 0.00 62 1012.9
20260906094532 82 84 0.0 2.0 0.00 0.00 0.00 62 1012.8
20260906094018 82 119 0.0 2.0 0.00 0.00 0.00 62 1012.7
20260906093513 83 86 0.0 2.0 0.00 0.00 0.00 62 1012.5
20260906093036 83 135 0.0 3.0 0.00 0.00 0.00 62 1012.5
20260906092511 83 94 0.0 3.0 0.00 0.00 0.00 62 1012.6
20260906092015 83 148 0.0 0.0 0.00 0.00 0.00 62 1012.5
20260906091536 83 153 0.0 0.0 0.00 0.00 0.00 61 1012.6
20260906091015 83 144 0.0 0.0 0.00 0.00 0.00 61 1012.6
20260906090517 83 139 0.0 2.0 0.00 0.00 0.00 61 1012.5
20260906090051 83 126 0.0 2.0 0.00 0.00 0.00 61 1012.5
20260906085518 83 121 0.0 2.0 0.00 0.00 0.00 60 1012.5
20260906085017 83 121 0.0 2.0 0.00 0.00 0.00 60 1012.5
20260906084534 84 116 0.0 2.0 0.00 0.00 0.00 60 1012.5
20260906084017 84 93 0.0 2.0 0.00 0.00 0.00 60 1012.6
20260906083517 84 87 0.0 2.0 0.00 0.00 0.00 60 1012.5
20260906083017 84 139 0.0 2.0 0.00 0.00 0.00 60 1012.6
20260906082516 84 136 0.0 1.0 0.00 0.00 0.00 59 1012.6
20260906082014 84 96 0.0 2.0 0.00 0.00 0.00 59 1012.5
20260906081537 84 128 0.0 3.0 0.00 0.00 0.00 59 1012.5
20260906081017 84 84 0.0 3.0 0.00 0.00 0.00 59 1012.4
20260906080503 84 123 0.0 2.0 0.00 0.00 0.00 59 1012.4
20260906080004 84 180 0.0 2.0 0.00 0.00 0.00 60 1012.3
20260906075503 84 103 0.0 3.0 0.00 0.00 0.00 60 1012.5
20260906075015 84 95 1.0 3.0 0.00 0.00 0.00 59 1012.4
20260906074531 84 82 0.0 2.0 0.00 0.00 0.00 60 1012.3
20260906074003 84 121 0.0 2.0 0.00 0.00 0.00 60 1012.3
20260906073504 84 121 0.0 2.0 0.00 0.00 0.00 60 1012.3
20260906073040 84 155 1.0 3.0 0.00 0.00 0.00 60 1012.2
20260906072510 84 80 0.0 3.0 0.00 0.00 0.00 60 1012.2
20260906072014 84 119 1.0 3.0 0.00 0.00 0.00 60 1012.2
20260906071523 84 101 1.0 3.0 0.00 0.00 0.00 60 1012.2
20260906071011 84 101 1.0 4.0 0.00 0.00 0.00 60 1012.2
20260906070515 84 87 1.0 6.0 0.00 0.00 0.00 60 1012.4
20260906070035 84 82 2.0 6.0 0.00 0.00 0.00 60 1012.3
20260906065515 84 85 1.0 3.0 0.00 0.00 0.00 60 1012.4
20260906065015 84 133 1.0 3.0 0.00 0.00 0.00 60 1012.4
20260906064507 84 93 0.0 4.0 0.00 0.00 0.00 60 1012.5
20260906064014 84 69 0.0 4.0 0.00 0.00 0.00 60 1012.5
20260906063504 85 78 0.0 4.0 0.00 0.00 0.00 60 1012.5
20260906063019 85 88 0.0 4.0 0.00 0.00 0.00 60 1012.6
20260906062507 85 71 0.0 2.0 0.00 0.00 0.00 59 1012.6
20260906062009 85 43 0.0 2.0 0.00 0.00 0.00 59 1012.7
20260906061526 85 37 0.0 2.0 0.00 0.00 0.00 58 1012.7
20260906061011 86 61 0.0 2.0 0.00 0.00 0.00 58 1012.8
20260906060517 86 84 0.0 3.0 0.00 0.00 0.00 58 1012.8
20260906060026 86 66 0.0 3.0 0.00 0.00 0.00 57 1012.8
20260906055519 86 34 0.0 2.0 0.00 0.00 0.00 57 1012.7
20260906055015 86 63 0.0 2.0 0.00 0.00 0.00 57 1012.8
20260906054529 86 76 1.0 2.0 0.00 0.00 0.00 57 1012.7
20260906054017 86 84 0.0 3.0 0.00 0.00 0.00 57 1012.8
20260906053503 86 70 0.0 3.0 0.00 0.00 0.00 57 1012.8
20260906053010 87 86 0.0 3.0 0.00 0.00 0.00 56 1012.9
20260906052524 87 96 0.0 3.0 0.00 0.00 0.00 56 1012.9
20260906052011 87 99 0.0 3.0 0.00 0.00 0.00 56 1012.8
20260906051534 87 76 0.0 5.0 0.00 0.00 0.00 56 1012.8
20260906051008 87 75 1.0 5.0 0.00 0.00 0.00 56 1012.8
20260906050509 87 71 1.0 3.0 0.00 0.00 0.00 56 1012.9
20260906050023 87 88 0.0 8.0 0.00 0.00 0.00 55 1012.8
20260906045510 87 40 0.0 8.0 0.00 0.00 0.00 55 1012.8
20260906045015 88 50 0.0 4.0 0.00 0.00 0.00 55 1012.8
20260906044542 88 26 1.0 4.0 0.00 0.00 0.00 55 1012.8
20260906044016 88 92 1.0 4.0 0.00 0.00 0.00 55 1012.8
20260906043515 88 30 1.0 0.0 0.00 0.00 0.00 55 1012.8
20260906043038 0 0.0 0.0 0.00 0.00 0.00 1012.9
20260906042517 0 0.0 0.0 0.00 0.00 0.00 1013.0
20260906042017 0 0.0 0.0 0.00 0.00 0.00 1013.0
20260906041535 0 0.0 0.0 0.00 0.00 0.00 1013.0
20260906041020 0 0.0 0.0 0.00 0.00 0.00 1013.0
20260906040520 0 0.0 0.0 0.00 0.00 0.00 1012.9
20260906040037 0 0.0 0.0 0.00 0.00 0.00 1013.0
20260906035517 0 0.0 0.0 0.00 0.00 0.00 1013.0
20260906035018 0 0.0 0.0 0.00 0.00 0.00 1013.0
20260906034539 0 0.0 0.0 0.00 0.00 0.00 1012.9
20260906034021 0 0.0 0.0 0.00 0.00 0.00 1012.8
20260906033518 0 0.0 0.0 0.00 0.00 0.00 1012.8
20260906033037 0 0.0 0.0 0.00 0.00 0.00 1012.9
20260906032520 0 0.0 0.0 0.00 0.00 0.00 1012.8
20260906032021 0 0.0 0.0 0.00 0.00 0.00 1012.6
20260906031539 0 0.0 0.0 0.00 0.00 0.00 1012.5
20260906031020 0 0.0 0.0 0.00 0.00 0.00 1012.4
20260906030520 0 0.0 0.0 0.00 0.00 0.00 1012.4
20260906030038 92 0.0 0.0 0.00 0.00 0.00 1012.3
20260906025520 92 0.0 3.0 0.00 0.00 0.00 43 1012.2
20260906025018 92 100 0.0 3.0 0.00 0.00 0.00 43 1012.2
20260906024537 92 31 1.0 2.0 0.00 0.00 0.00 43 1012.2
20260906024018 92 49 0.0 0.0 0.00 0.00 0.00 43 1012.1
20260906023516 93 49 0.0 0.0 0.00 0.00 0.00 43 1012.0
20260906023036 93 49 0.0 0.0 0.00 0.00 0.00 43 1011.9
20260906022525 93 49 0.0 0.0 0.00 0.00 0.00 43 1011.9
20260906022021 93 49 0.0 0.0 0.00 0.00 0.00 43 1011.8
20260906021534 93 49 0.0 0.0 0.00 0.00 0.00 43 1011.7
20260906021016 93 49 0.0 0.0 0.00 0.00 0.00 43 1011.6
20260906020517 93 49 0.0 0.0 0.00 0.00 0.00 42 1011.5
20260906020037 93 49 0.0 0.0 0.00 0.00 0.00 42 1011.5
20260906015501 93 49 0.0 0.0 0.00 0.00 0.00 42 1011.5
20260906015016 94 49 0.0 0.0 0.00 0.00 0.00 42 1011.4
20260906014528 94 49 0.0 0.0 0.00 0.00 0.00 42 1011.4
20260906014003 94 49 0.0 0.0 0.00 0.00 0.00 41 1011.3
20260906013512 94 49 0.0 0.0 0.00 0.00 0.00 41 1011.3
20260906013046 95 49 0.0 0.0 0.00 0.00 0.00 41 1011.2
20260906012503 95 49 0.0 0.0 0.00 0.00 0.00 41 1011.2
20260906012015 95 49 0.0 0.0 0.00 0.00 0.00 41 1011.2
20260906011539 95 49 0.0 0.0 0.00 0.00 0.00 41 1011.1
20260906011007 95 49 0.0 2.0 0.00 0.00 0.00 41 1011.0
20260906010521 96 49 0.0 2.0 0.00 0.00 0.00 40 1011.1
20260906010032 96 49 0.0 2.0 0.00 0.00 0.00 40 1011.0
20260906005505 96 49 0.0 2.0 0.00 0.00 0.00 40 1011.0
20260906005021 97 352 0.0 2.0 0.00 0.00 0.00 39 1011.0
20260906004518 97 352 0.0 3.0 0.00 0.00 0.00 39 1011.1
20260906004024 97 352 1.0 3.0 0.00 0.00 0.00 38 1011.0
20260906003519 97 352 1.0 3.0 0.00 0.00 0.00 38 1011.0
20260906003024 98 352 2.0 4.0 0.00 0.00 0.00 38 1011.0
20260906002518 98 5 2.0 5.0 0.00 0.00 0.00 37 1011.0
20260906002018 99 344 2.0 4.0 0.00 0.00 0.00 36 1011.0
20260906001532 99 40 2.0 4.0 0.00 0.00 0.00 36 1011.1
20260906001021 100 44 1.0 4.0 0.00 0.00 0.00 36 1011.0
20260906000520 100 16 2.0 8.0 0.00 0.00 0.00 35 1011.2
20260906000013 101 25 2.0 8.0 0.00 0.00 0.00 35 1011.2
20260905235507 102 44 1.0 3.0 0.00 0.00 0.00 34 1011.2
20260905235006 102 91 0.0 2.0 0.00 0.00 0.00 33 1011.2
20260905234535 102 44 1.0 2.0 0.00 0.00 0.00 33 1011.3
20260905234019 102 49 0.0 3.0 0.00 0.00 0.00 33 1011.1
20260905233512 102 69 0.0 6.0 0.00 0.00 0.00 33 1011.0
20260905233005 102 75 2.0 6.0 0.00 0.00 0.00 33 1011.0
20260905232502 102 349 1.0 3.0 0.00 0.00 0.00 33 1011.0
20260905232003 102 32 1.0 2.0 0.00 0.00 0.00 33 1011.1
20260905231503 102 45 0.0 4.0 0.00 0.00 0.00 32 1011.0
20260905231021 102 82 1.0 4.0 0.00 0.00 0.00 32 1010.9
20260905230515 102 57 2.0 4.0 0.00 0.00 0.00 32 1010.9
20260905230040 102 35 1.0 3.0 0.00 0.00 0.00 33 1010.9
20260905225519 102 350 1.0 3.0 0.00 0.00 0.00 33 1010.9
20260905225020 102 9 2.0 4.0 0.00 0.00 0.00 32 1010.8
20260905224536 102 86 0.0 4.0 0.00 0.00 0.00 32 1010.9
20260905224020 102 93 2.0 4.0 0.00 0.00 0.00 32 1010.9
20260905223518 102 332 1.0 3.0 0.00 0.00 0.00 32 1010.9
20260905223042 102 277 0.0 3.0 0.00 0.00 0.00 31 1011.0
20260905222517 101 252 1.0 4.0 0.00 0.00 0.00 31 1011.1
20260905222022 101 288 1.0 6.0 0.00 0.00 0.00 32 1011.1
20260905221506 101 191 3.0 6.0 0.00 0.00 0.00 32 1011.1
20260905221020 101 48 0.0 4.0 0.00 0.00 0.00 34 1011.1
20260905220515 100 48 0.0 4.0 0.00 0.00 0.00 34 1011.1
20260905220006 100 169 1.0 6.0 0.00 0.00 0.00 34 1011.1
20260905215516 100 208 3.0 7.0 0.00 0.00 0.00 33 1011.3
20260905215016 101 185 4.0 7.0 0.00 0.00 0.00 33 1011.3
20260905214510 100 162 2.0 6.0 0.00 0.00 0.00 33 1011.4
20260905214016 100 180 2.0 7.0 0.00 0.00 0.00 33 1011.4
20260905213512 101 135 3.0 7.0 0.00 0.00 0.00 33 1011.5
20260905213019 101 149 2.0 3.0 0.00 0.00 0.00 32 1011.6
20260905212509 101 43 0.0 4.0 0.00 0.00 0.00 32 1011.5
20260905212021 100 214 2.0 7.0 0.00 0.00 0.00 32 1011.6
20260905211523 100 140 2.0 7.0 0.00 0.00 0.00 33 1011.6
20260905211021 100 126 2.0 7.0 0.00 0.00 0.00 34 1011.7
20260905210512 100 125 2.0 7.0 0.00 0.00 0.00 34 1011.7
20260905210049 100 198 4.0 8.0 0.00 0.00 0.00 34 1011.8
20260905205520 100 157 5.0 8.0 0.00 0.00 0.00 32 1011.9
20260905205015 100 170 2.0 8.0 0.00 0.00 0.00 33 1011.9
20260905204508 100 117 3.0 7.0 0.00 0.00 0.00 34 1012.0
20260905204020 100 182 1.0 4.0 0.00 0.00 0.00 35 1012.0
20260905203516 99 259 1.0 3.0 0.00 0.00 0.00 34 1012.1
20260905203051 99 78 1.0 4.0 0.00 0.00 0.00 35 1012.2
20260905202516 99 20 1.0 4.0 0.00 0.00 0.00 35 1012.2
20260905202021 99 52 0.0 2.0 0.00 0.00 0.00 37 1012.5
20260905201519 98 306 1.0 2.0 0.00 0.00 0.00 37 1012.4
20260905201011 98 252 0.0 4.0 0.00 0.00 0.00 37 1012.5
20260905200517 98 179 1.0 4.0 0.00 0.00 0.00 37 1012.7
20260905200038 98 196 2.0 6.0 0.00 0.00 0.00 37 1012.7
20260905195514 99 126 3.0 10.0 0.00 0.00 0.00 37 1012.8
20260905195025 99 156 4.0 9.0 0.00 0.00 0.00 37 1012.8
20260905194539 99 144 4.0 7.0 0.00 0.00 0.00 37 1012.8
20260905194003 99 175 3.0 5.0 0.00 0.00 0.00 37 1012.9
20260905193503 99 57 2.0 5.0 0.00 0.00 0.00 38 1013.0
20260905193036 98 60 1.0 8.0 0.00 0.00 0.00 38 1013.0
20260905192516 98 94 4.0 9.0 0.00 0.00 0.00 38 1013.1
20260905192021 99 82 4.0 8.0 0.00 0.00 0.00 37 1013.2
20260905191539 99 119 1.0 4.0 0.00 0.00 0.00 38 1013.2
20260905191018 99 101 2.0 4.0 0.00 0.00 0.00 38 1013.4
20260905190520 99 161 2.0 5.0 0.00 0.00 0.00 37 1013.4
20260905190036 98 251 2.0 4.0 0.00 0.00 0.00 38 1013.4
20260905185518 98 114 0.0 5.0 0.00 0.00 0.00 38 1013.5
20260905185021 98 290 2.0 5.0 0.00 0.00 0.00 39 1013.6
20260905184544 98 52 1.0 8.0 0.00 0.00 0.00 39 1013.8
20260905184024 98 155 2.0 7.0 0.00 0.00 0.00 39 1013.8
20260905183515 98 165 2.0 4.0 0.00 0.00 0.00 39 1013.8
20260905183037 98 168 0.0 5.0 0.00 0.00 0.00 40 1013.9
20260905182518 97 321 1.0 5.0 0.00 0.00 0.00 40 1013.9
20260905182004 98 117 2.0 4.0 0.00 0.00 0.00 40 1014.0
20260905181533 97 18 2.0 4.0 0.00 0.00 0.00 41 1014.1
20260905181017 97 171 1.0 4.0 0.00 0.00 0.00 41 1014.2
20260905180508 97 33 1.0 7.0 0.00 0.00 0.00 42 1014.2
20260905180038 96 103 3.0 7.0 0.00 0.00 0.00 42 1014.2
20260905175518 96 38 2.0 5.0 0.00 0.00 0.00 43 1014.3
20260905175012 96 285 0.0 5.0 0.00 0.00 0.00 43 1014.3
20260905174538 96 229 2.0 7.0 0.00 0.00 0.00 42 1014.5